EW0152 Weather Reports


time (UTC)temp
C
wind
direction
speed
KPH
gust
KPH
rain 1hr
cm
rain 24hr
cm
rain mn
cm
humidity
%
barometer
mb
20260507023109 14 0 3.2 14.5 0.00 0.03 0.03 89 1010.1
20260507022559 14 192 3.2 14.5 0.00 0.03 0.03 89 1010.0
20260507022058 14 236 3.2 11.3 0.00 0.03 0.03 89 1010.0
20260507021557 14 177 6.4 11.3 0.00 0.03 0.03 89 1010.0
20260507021057 14 0 3.2 11.3 0.00 0.03 0.03 89 1010.1
20260507020558 14 239 1.6 11.3 0.00 0.03 0.03 89 1010.1
20260507020100 14 146 3.2 11.3 0.00 0.03 0.03 89 1010.2
20260507015557 14 296 3.2 11.3 0.00 0.03 0.03 89 1010.0
20260507015057 14 153 1.6 12.9 0.00 0.03 0.03 90 1010.2
20260507014557 14 236 3.2 12.9 0.00 0.03 0.03 90 1010.1
20260507014057 14 234 3.2 11.3 0.00 0.03 0.03 90 1010.3
20260507013600 14 0 6.4 11.3 0.00 0.03 0.03 90 1010.3
20260507013057 13 170 3.2 9.7 0.00 0.03 0.03 90 1010.4
20260507012558 13 169 3.2 9.7 0.00 0.03 0.03 90 1010.5
20260507012058 13 232 4.8 9.7 0.00 0.03 0.03 90 1010.6
20260507011601 13 167 4.8 11.3 0.00 0.03 0.03 90 1010.6
20260507011057 13 225 3.2 11.3 0.00 0.03 0.03 89 1010.8
20260507010558 13 154 3.2 16.1 0.00 0.03 0.03 90 1010.7
20260507010058 13 165 4.8 16.1 0.00 0.03 0.03 89 1010.6
20260507005559 13 153 6.4 12.9 0.00 0.03 0.03 89 1010.7
20260507005101 13 163 4.8 14.5 0.00 0.03 0.03 89 1010.7
20260507004557 13 186 6.4 14.5 0.00 0.03 0.03 89 1010.7
20260507004057 13 185 4.8 14.5 0.00 0.03 0.03 89 1010.7
20260507003558 13 160 4.8 19.3 0.00 0.03 0.03 89 1010.6
20260507003116 13 173 4.8 19.3 0.00 0.03 0.03 89 1010.6
20260507002557 13 179 6.4 19.3 0.00 0.03 0.03 89 1010.6
20260507002058 13 167 4.8 16.1 0.00 0.03 0.03 89 1010.5
20260507001615 13 173 6.4 16.1 0.00 0.03 0.03 89 1010.6
20260507001057 13 212 6.4 17.7 0.00 0.03 0.03 89 1010.3
20260507000601 13 181 6.4 17.7 0.00 0.03 0.03 89 1010.4
20260507000058 13 171 3.2 12.9 0.00 0.03 0.03 89 1010.4
20260506235559 13 150 3.2 14.5 0.00 0.03 0.03 89 1010.4
20260506235059 13 155 4.8 17.7 0.00 0.03 0.03 89 1010.3
20260506234558 13 167 6.4 17.7 0.00 0.03 0.03 88 1010.2
20260506234058 13 231 6.4 17.7 0.00 0.03 0.03 89 1010.3
20260506233602 13 156 6.4 19.3 0.00 0.03 0.03 88 1010.3
20260506233058 13 162 9.7 19.3 0.00 0.03 0.03 88 1010.2
20260506232557 13 173 4.8 17.7 0.00 0.03 0.03 88 1010.3
20260506232057 14 169 6.4 12.9 0.00 0.03 0.03 88 1010.3
20260506231606 14 175 6.4 17.7 0.00 0.03 0.03 88 1010.3
20260506231057 14 151 8.0 17.7 0.00 0.03 0.03 88 1010.6
20260506230557 14 167 4.8 17.7 0.00 0.03 0.03 88 1010.6
20260506230113 14 144 6.4 16.1 0.00 0.03 0.03 88 1010.6
20260506225558 14 175 3.2 12.9 0.00 0.03 0.03 88 1010.6
20260506225057 14 162 6.4 12.9 0.00 0.03 0.03 88 1010.6
20260506224558 14 184 4.8 14.5 0.00 0.03 0.03 88 1010.4
20260506224100 14 164 3.2 14.5 0.00 0.03 0.03 88 1010.4
20260506223600 14 151 4.8 14.5 0.00 0.03 0.03 88 1010.6
20260506223103 14 163 1.6 17.7 0.00 0.03 0.03 88 1010.7
20260506222600 14 172 6.4 17.7 0.00 0.03 0.03 88 1010.8
20260506222101 14 153 1.6 19.3 0.03 0.03 0.03 88 1010.9
20260506221614 15 198 6.4 19.3 0.03 0.03 0.03 88 1010.8
20260506221058 15 167 6.4 19.3 0.03 0.03 0.03 87 1010.9
20260506220600 15 161 6.4 16.1 0.03 0.03 0.03 87 1010.9
20260506220056 15 171 3.2 16.1 0.03 0.03 0.03 87 1010.9
20260506215602 15 249 3.2 19.3 0.03 0.03 0.03 87 1010.9
20260506215100 15 153 3.2 19.3 0.03 0.03 0.03 87 1011.0
20260506214559 15 169 3.2 20.9 0.03 0.03 0.03 87 1011.1
20260506214057 15 166 8.0 20.9 0.03 0.03 0.03 87 1011.1
20260506213556 15 201 1.6 11.3 0.03 0.03 0.03 87 1011.1
20260506213103 15 175 4.8 19.3 0.03 0.03 0.03 86 1011.1
20260506212557 15 166 8.0 19.3 0.03 0.03 0.03 86 1011.2
20260506212100 15 225 6.4 19.3 0.00 0.00 0.00 86 1011.1
20260506211557 15 159 6.4 12.9 0.00 0.00 0.00 86 1011.2
20260506211058 15 153 3.2 14.5 0.00 0.00 0.00 86 1011.2
20260506210558 15 181 6.4 14.5 0.00 0.00 0.00 85 1011.1
20260506210059 15 162 3.2 11.3 0.00 0.00 0.00 85 1011.2
20260506205600 16 166 4.8 11.3 0.00 0.00 0.00 84 1011.3
20260506205058 16 171 4.8 12.9 0.00 0.00 0.00 83 1011.3
20260506204558 16 181 4.8 19.3 0.00 0.00 0.00 83 1011.4
20260506204058 16 167 6.4 19.3 0.00 0.00 0.00 81 1011.4
20260506203557 16 161 6.4 14.5 0.00 0.00 0.00 80 1011.4
20260506203119 16 152 4.8 19.3 0.00 0.00 0.00 80 1011.2
20260506202557 16 155 4.8 19.3 0.00 0.00 0.00 80 1011.3
20260506202057 16 163 4.8 17.7 0.00 0.00 0.00 79 1011.4
20260506201556 17 177 8.0 19.3 0.00 0.00 0.00 77 1011.3
20260506201057 17 154 8.0 22.5 0.00 0.00 0.00 76 1011.3
20260506200601 17 163 4.8 24.1 0.00 0.00 0.00 75 1011.3
20260506200058 17 179 9.7 24.1 0.00 0.00 0.00 75 1011.3
20260506195557 17 182 6.4 16.1 0.00 0.00 0.00 74 1011.3
20260506195058 17 178 6.4 14.5 0.00 0.00 0.00 73 1011.5
20260506194600 17 146 4.8 14.5 0.00 0.00 0.00 73 1011.6
20260506194057 17 173 6.4 16.1 0.00 0.00 0.00 72 1011.5
20260506193557 17 157 6.4 16.1 0.00 0.00 0.00 71 1011.7
20260506193106 18 159 6.4 17.7 0.00 0.00 0.00 70 1011.7
20260506192557 18 185 6.4 17.7 0.00 0.00 0.00 69 1011.7
20260506192057 18 200 4.8 22.5 0.00 0.00 0.00 68 1011.7
20260506191556 18 175 6.4 33.8 0.00 0.00 0.00 66 1011.7
20260506191057 18 186 14.5 33.8 0.00 0.00 0.00 64 1011.7
20260506190556 19 178 4.8 24.1 0.00 0.00 0.00 64 1011.7
20260506190056 19 159 8.0 24.1 0.00 0.00 0.00 64 1011.6
20260506185557 19 167 8.0 25.7 0.00 0.00 0.00 64 1011.7
20260506185057 19 171 9.7 25.7 0.00 0.00 0.00 63 1011.5
20260506184554 19 207 8.0 27.4 0.00 0.00 0.00 63 1011.6
20260506184057 19 135 11.3 27.4 0.00 0.00 0.00 63 1011.6
20260506183601 19 198 8.0 25.7 0.00 0.00 0.00 64 1011.7
20260506183105 19 184 8.0 19.3 0.00 0.00 0.00 64 1011.8
20260506182557 19 178 4.8 25.7 0.00 0.00 0.00 64 1011.8
20260506182056 19 165 11.3 25.7 0.00 0.00 0.00 63 1011.8
20260506181604 19 152 11.3 22.5 0.00 0.00 0.00 63 1011.9
20260506181056 20 166 8.0 20.9 0.00 0.00 0.00 63 1011.9
20260506180557 20 161 9.7 24.1 0.00 0.00 0.00 62 1012.0
20260506180058 20 178 4.8 30.6 0.00 0.00 0.00 61 1012.1
20260506175556 20 169 11.3 30.6 0.00 0.00 0.00 59 1012.3
20260506175059 21 174 8.0 25.7 0.00 0.00 0.00 59 1012.1
20260506174556 21 180 9.7 25.7 0.00 0.00 0.00 59 1012.3
20260506174057 20 176 8.0 24.1 0.00 0.00 0.00 60 1012.4
20260506173557 20 180 9.7 20.9 0.00 0.00 0.00 61 1012.5
20260506173106 20 163 8.0 22.5 0.00 0.00 0.00 61 1012.5
20260506172556 20 155 11.3 29.0 0.00 0.00 0.00 61 1012.4
20260506172057 20 173 9.7 29.0 0.00 0.00 0.00 61 1012.4
20260506171558 20 161 12.9 27.4 0.00 0.00 0.00 61 1012.3
20260506171057 20 165 4.8 24.1 0.00 0.00 0.00 61 1012.4
20260506170556 20 176 11.3 30.6 0.00 0.00 0.00 62 1012.4
20260506170106 20 155 12.9 30.6 0.00 0.00 0.00 62 1012.4
20260506165556 20 134 11.3 25.7 0.00 0.00 0.00 61 1012.7
20260506165056 20 171 6.4 24.1 0.00 0.00 0.00 61 1012.6
20260506164625 20 181 11.3 24.1 0.00 0.00 0.00 61 1012.8
20260506164056 20 160 9.7 24.1 0.00 0.00 0.00 60 1012.8
20260506163556 20 119 8.0 20.9 0.00 0.00 0.00 61 1012.8
20260506163109 20 171 9.7 20.9 0.00 0.00 0.00 60 1012.8
20260506162556 20 166 6.4 16.1 0.00 0.00 0.00 61 1013.0
20260506162056 20 163 6.4 22.5 0.00 0.00 0.00 60 1013.1
20260506161559 20 177 9.7 20.9 0.00 0.00 0.00 61 1013.1
20260506161100 20 178 8.0 22.5 0.00 0.00 0.00 60 1013.2
20260506160557 20 155 8.0 22.5 0.00 0.00 0.00 61 1013.2
20260506160120 20 149 11.3 20.9 0.00 0.00 0.00 61 1013.4
20260506155557 20 190 6.4 16.1 0.00 0.00 0.00 61 1013.6
20260506155057 20 185 9.7 20.9 0.00 0.00 0.00 61 1013.5
20260506154558 20 223 8.0 25.7 0.00 0.00 0.00 60 1013.7
20260506154057 20 165 6.4 25.7 0.00 0.00 0.00 60 1013.6
20260506153601 20 145 9.7 25.7 0.00 0.00 0.00 60 1013.7
20260506153058 20 146 8.0 20.9 0.00 0.00 0.00 60 1013.7
20260506152556 20 154 6.4 20.9 0.00 0.00 0.00 60 1013.7
20260506152101 20 171 11.3 20.9 0.00 0.00 0.00 60 1013.8
20260506151555 20 182 8.0 24.1 0.00 0.00 0.00 60 1013.9
20260506151057 20 157 9.7 24.1 0.00 0.00 0.00 60 1013.8
20260506150556 20 159 9.7 20.9 0.00 0.00 0.00 60 1013.8
20260506145554 20 170 8.0 22.5 0.00 0.00 0.00 61 1013.8
20260506145057 20 171 9.7 22.5 0.00 0.00 0.00 61 1013.7
20260506144555 20 168 8.0 25.7 0.00 0.00 0.00 62 1013.8
20260506144056 20 172 9.7 25.7 0.00 0.00 0.00 62 1013.5
20260506143557 20 160 9.7 19.3 0.00 0.00 0.00 62 1013.6
20260506143056 20 136 3.2 19.3 0.00 0.00 0.00 63 1013.5
20260506142557 20 153 6.4 22.5 0.00 0.00 0.00 63 1013.5
20260506142058 19 163 9.7 32.2 0.00 0.00 0.00 63 1013.6
20260506141556 20 173 9.7 25.7 0.00 0.00 0.00 63 1013.6
20260506141057 20 152 9.7 20.9 0.00 0.00 0.00 63 1013.6
20260506140558 20 163 8.0 20.9 0.00 0.00 0.00 63 1013.6
20260506140056 20 165 11.3 19.3 0.00 0.00 0.00 63 1013.7
20260506135557 20 159 4.8 17.7 0.00 0.00 0.00 64 1013.6
20260506135056 19 162 6.4 17.7 0.00 0.00 0.00 65 1013.6
20260506134555 19 190 8.0 20.9 0.00 0.00 0.00 65 1013.7
20260506134059 18 182 6.4 20.9 0.00 0.00 0.00 68 1014.0
20260506133556 18 176 8.0 22.5 0.00 0.00 0.00 68 1014.2
20260506133109 18 155 8.0 29.0 0.00 0.00 0.00 68 1014.2
20260506132558 18 166 9.7 29.0 0.00 0.00 0.00 68 1014.2
20260506132100 18 163 11.3 25.7 0.00 0.00 0.00 68 1014.2
20260506131616 18 180 8.0 22.5 0.00 0.00 0.00 70 1014.1
20260506131057 17 172 4.8 25.7 0.00 0.00 0.00 71 1014.2
20260506130557 17 161 4.8 25.7 0.00 0.00 0.00 71 1014.1
20260506130058 17 162 9.7 29.0 0.00 0.00 0.00 71 1014.2
20260506125556 17 173 4.8 29.0 0.00 0.00 0.00 72 1014.2
20260506125056 17 162 3.2 16.1 0.00 0.00 0.00 73 1014.1
20260506124554 16 159 4.8 19.3 0.00 0.00 0.00 73 1014.2
20260506124056 16 169 8.0 19.3 0.00 0.00 0.00 73 1014.3
20260506123556 16 166 8.0 16.1 0.00 0.00 0.00 74 1014.1
20260506123057 16 240 4.8 16.1 0.00 0.00 0.00 75 1014.1
20260506122557 16 170 9.7 25.7 0.00 0.00 0.00 75 1014.0
20260506122056 16 197 6.4 25.7 0.00 0.00 0.00 76 1013.9
20260506121557 16 164 9.7 19.3 0.00 0.00 0.00 76 1014.1
20260506121056 16 150 4.8 24.1 0.00 0.00 0.00 77 1014.1
20260506120553 16 186 6.4 24.1 0.00 0.00 0.00 77 1014.4
20260506120103 15 163 6.4 14.5 0.00 0.00 0.00 77 1014.6
20260506115555 15 177 8.0 19.3 0.00 0.00 0.00 77 1014.5
20260506115057 15 169 4.8 19.3 0.00 0.00 0.00 78 1014.6
20260506114556 15 175 8.0 17.7 0.00 0.00 0.00 78 1014.9
20260506114101 15 157 8.0 17.7 0.00 0.00 0.00 78 1014.9
20260506113556 15 207 8.0 17.7 0.00 0.00 0.00 79 1014.8
20260506113055 15 178 4.8 16.1 0.00 0.00 0.00 79 1014.8
20260506112557 15 166 1.6 16.1 0.00 0.00 0.00 80 1014.7
20260506112059 15 162 4.8 22.5 0.00 0.00 0.00 80 1014.7
20260506111557 15 165 11.3 22.5 0.00 0.00 0.00 80 1014.5
20260506111056 15 180 6.4 14.5 0.00 0.00 0.00 80 1014.5
20260506110556 15 163 4.8 14.5 0.00 0.00 0.00 80 1014.6
20260506110111 15 157 3.2 16.1 0.00 0.00 0.00 80 1014.6
20260506105556 15 159 6.4 16.1 0.00 0.00 0.00 80 1014.6
20260506105055 15 166 8.0 20.9 0.00 0.00 0.00 80 1014.7
20260506104613 15 160 8.0 20.9 0.00 0.00 0.00 80 1014.7
20260506104054 15 151 3.2 12.9 0.00 0.00 0.00 80 1014.8
20260506103557 15 132 6.4 14.5 0.00 0.00 0.00 79 1014.7
20260506103055 15 167 4.8 19.3 0.00 0.00 0.00 79 1014.7
20260506102557 15 0 8.0 19.3 0.00 0.00 0.00 79 1014.5
20260506102059 15 170 4.8 19.3 0.00 0.00 0.00 79 1014.5
20260506101600 15 161 4.8 19.3 0.00 0.00 0.00 79 1014.7
20260506101057 15 158 4.8 17.7 0.00 0.00 0.00 79 1014.4
20260506100601 15 155 8.0 14.5 0.00 0.00 0.00 79 1014.5
20260506100112 15 159 4.8 16.1 0.00 0.00 0.00 78 1014.3
20260506095556 15 190 4.8 16.1 0.00 0.00 0.00 78 1014.2
20260506095059 15 165 6.4 20.9 0.00 0.00 0.00 78 1014.3
20260506094603 15 153 8.0 20.9 0.00 0.00 0.00 78 1014.3
20260506094058 15 162 8.0 17.7 0.00 0.00 0.00 78 1014.3
20260506093600 15 159 6.4 14.5 0.00 0.00 0.00 78 1014.2
20260506093056 15 155 3.2 14.5 0.00 0.00 0.00 78 1014.2
20260506092559 15 159 6.4 19.3 0.00 0.00 0.00 78 1014.1
20260506092059 15 176 6.4 19.3 0.00 0.00 0.00 78 1014.2
20260506091605 15 175 4.8 20.9 0.00 0.00 0.00 78 1014.2
20260506091057 15 153 6.4 20.9 0.00 0.00 0.00 77 1014.3
20260506090600 15 155 9.7 16.1 0.00 0.00 0.00 77 1014.3
20260506090059 15 173 6.4 16.1 0.00 0.00 0.00 77 1014.3
20260506085557 15 176 6.4 16.1 0.00 0.00 0.00 77 1014.4
20260506085057 15 143 6.4 16.1 0.00 0.00 0.00 76 1014.4
20260506084624 15 175 4.8 16.1 0.00 0.00 0.00 76 1014.4
20260506084058 15 157 8.0 16.1 0.00 0.00 0.00 76 1014.3
20260506083559 15 167 6.4 17.7 0.00 0.00 0.00 75 1014.3
20260506083059 15 156 6.4 17.7 0.00 0.00 0.00 75 1014.3
20260506082602 16 151 9.7 17.7 0.00 0.00 0.00 74 1014.3
20260506082058 16 169 9.7 17.7 0.00 0.00 0.00 74 1014.3
20260506081601 16 178 6.4 25.7 0.00 0.00 0.00 74 1014.3
20260506081058 16 169 4.8 25.7 0.00 0.00 0.00 74 1014.2
20260506080602 16 167 6.4 19.3 0.00 0.00 0.00 74 1014.3
20260506073058 16 282 8.0 17.7 0.00 0.00 0.00 73 1014.1
20260506072558 16 171 6.4 17.7 0.00 0.00 0.00 73 1014.2
20260506072058 16 172 6.4 22.5 0.00 0.00 0.00 73 1014.1
20260506071558 16 151 6.4 22.5 0.00 0.00 0.00 73 1014.1
20260506071059 16 152 8.0 19.3 0.00 0.00 0.00 73 1014.1
20260506070558 16 166 6.4 19.3 0.00 0.00 0.00 72 1014.2
20260506062058 16 175 6.4 19.3 0.00 0.00 0.00 70 1014.1
20260506061557 16 171 8.0 19.3 0.00 0.00 0.00 70 1014.1
20260506061058 16 155 11.3 19.3 0.00 0.00 0.00 70 1014.1
20260506060557 16 171 9.7 19.3 0.00 0.00 0.00 70 1013.9
20260506051058 16 181 8.0 17.7 0.00 0.00 0.00 68 1014.4
20260506050559 16 159 6.4 19.3 0.00 0.00 0.00 67 1014.5
20260506045058 16 180 3.2 16.1 0.00 0.00 0.00 66 1014.6
20260506044557 16 171 6.4 17.7 0.00 0.00 0.00 65 1014.6
20260506044057 16 165 8.0 19.3 0.00 0.00 0.00 65 1014.7
20260506043557 16 167 11.3 19.3 0.00 0.00 0.00 65 1014.7
20260506043056 16 184 6.4 20.9 0.00 0.00 0.00 65 1014.7
20260506042559 16 192 8.0 24.1 0.00 0.00 0.00 65 1014.6
20260506042100 16 188 6.4 24.1 0.00 0.00 0.00 65 1014.7
20260506041606 16 158 9.7 24.1 0.00 0.00 0.00 64 1014.6
20260506041058 16 153 8.0 20.9 0.00 0.00 0.00 64 1014.7
20260506040558 16 147 6.4 20.9 0.00 0.00 0.00 64 1014.7
20260506040059 16 184 11.3 20.9 0.00 0.00 0.00 64 1014.6
20260506035557 16 172 8.0 19.3 0.00 0.00 0.00 64 1014.5
20260506035058 16 178 8.0 19.3 0.00 0.00 0.00 64 1014.6
20260506034557 16 183 8.0 20.9 0.00 0.00 0.00 63 1014.5
20260506034057 16 177 8.0 20.9 0.00 0.00 0.00 63 1014.5
20260506033557 16 157 8.0 16.1 0.00 0.00 0.00 63 1014.4
20260506033100 16 161 6.4 17.7 0.00 0.00 0.00 63 1014.4
20260506032601 16 178 6.4 20.9 0.00 0.00 0.00 62 1014.6
20260506032059 16 171 8.0 20.9 0.00 0.00 0.00 62 1014.4
20260506031557 16 154 8.0 27.4 0.00 0.00 0.00 62 1014.5
20260506031059 16 154 9.7 27.4 0.00 0.00 0.00 61 1014.4
20260506030559 16 198 8.0 16.1 0.00 0.00 0.00 61 1014.4
20260506030100 17 171 6.4 19.3 0.00 0.00 0.00 61 1014.4
20260506025557 17 172 8.0 19.3 0.00 0.00 0.00 61 1014.4
20260506025100 17 185 6.4 19.3 0.00 0.00 0.00 61 1014.5
20260506024557 17 221 8.0 19.3 0.00 0.00 0.00 60 1014.4
20260506024057 17 172 8.0 19.3 0.00 0.00 0.00 60 1014.4
20260506023558 17 157 9.7 22.5 0.00 0.00 0.00 61 1014.2